Location: Nairn
(57.5833°N, 3.8667°W)
Time: 23:24:06
(UTC+00:00)

Tiros 1 - Pass Details

Date: 05 December 2020
Orbit: 630 x 663 km, 48.4° (Epoch: 22 January)

Event Time Altitude Azimuth Distance (km) Brightness Sun altitude
Rises 17:43:44 0° 264° (W) 2,997 12.2 -15.9°
Reaches altitude 10° 17:46:37 10° 248° (WSW) 2,080 11.1 -16.3°
Maximum altitude 17:50:02 20° 202° (SSW) 1,535 9.5 -16.7°
Drops below altitude 10° 17:53:25 10° 157° (SSE) 2,065 9.7 -17.2°
Enters shadow 17:55:40 - 143° (SE) 2,762 10.2 -17.4°
Sets 17:56:17 0° 140° (SE) 2,969 - -17.5°
